Retour au catalogue

RADUGA 16

ActifMilitaireGEO
NORAD 15946·PAYLOAD·🇷🇺 Russia

Lancé Aug 8, 1985 depuis Baikonur Cosmodrome

Loading…

TLE

FraisSource: Space-Track

Époque: Sep 14, 2026, 11:38 UTC

1 15946U 85070A   26257.48530929  .00000112  00000-0  00000-0 0  9991
2 15946   9.2646 316.2855 0003004 296.4480 119.9755  1.00334966123122

Suivez RADUGA 16 en temps réel avec AllMySat

Download on the App Store